Temp_Advection
nan nan nan nan nan nan nan nan nan nan nan nan nan nan nan nan nan nan nan nan nan nan nan nan nan nan nan nan nan nan nan nan nan nan nan nan nan nan
nan 0 1 1 1 1 1 1 1 1 1 -0 -0 0 1 0 -0 -0 0 0 -0 -0 -0 0 1 0 1 0 -0 1 1 0 0 0 0 1 1 nan
nan 1 1 1 1 1 1 1 1 1 0 -0 0 0 -0 0 0 -0 0 0 0 0 0 0 1 1 0 1 1 -0 0 1 0 0 0 1 1 nan
nan 1 1 1 1 1 1 1 0 0 0 0 -0 -0 -0 -0 -0 0 -0 0 0 0 0 1 0 0 0 0 1 1 1 1 1 0 -0 0 1 nan
nan 1 1 1 1 1 1 1 0 0 1 0 -0 -0 0 -0 -0 -0 -0 0 0 0 0 -0 -0 -0 0 0 0 1 2 2 2 0 -1 -0 0 nan
nan 1 1 1 1 1 1 0 0 0 0 0 0 -0 -0 -0 0 -0 -0 -0 0 0 -0 -0 -0 -0 -0 0 1 1 2 2 2 -0 -1 0 1 nan
nan 2 1 1 1 1 1 1 0 0 0 0 0 0 -0 -0 -0 -0 -1 -1 -1 -0 -1 -1 -1 -1 -1 -0 0 0 1 1 1 1 0 0 1 nan
nan 1 1 1 1 1 1 0 0 0 0 0 0 0 0 -0 -0 0 0 -0 -2 -0 -0 -2 -2 -2 -1 -0 0 1 0 1 1 0 0 1 1 nan
nan 1 1 1 1 0 0 0 0 0 0 0 0 0 0 1 0 -0 0 0 -1 -0 0 -1 -2 -2 -1 -1 0 0 0 1 1 0 0 1 0 nan
nan 1 1 0 0 0 0 0 0 0 0 0 0 0 0 0 1 0 -0 -1 -1 0 1 -0 -1 -2 -2 -1 0 0 0 1 1 0 0 0 0 nan
nan 0 0 0 0 0 0 0 0 0 0 1 0 0 0 1 1 0 1 0 -2 -2 1 0 -0 -1 -2 -2 -0 1 1 1 1 0 0 0 0 nan
nan 0 0 0 0 0 0 -0 -0 0 -0 -0 0 0 0 0 0 0 0 1 -0 -2 -1 -0 -0 -0 -1 -2 -1 1 1 0 0 0 0 0 0 nan
nan 0 0 0 0 0 0 0 0 -0 -0 -1 -1 -0 -0 -0 0 0 1 0 0 -2 -0 0 -1 -0 -1 -1 0 1 0 0 0 0 0 0 0 nan
nan 0 0 0 0 0 0 0 -0 -0 -0 -0 -0 -0 -0 -0 -0 0 1 0 1 -1 -1 1 0 -1 -1 0 0 0 0 0 0 0 0 0 0 nan
nan 0 0 0 1 0 -0 -1 -0 -0 -0 -0 -0 -0 -0 -0 -1 -1 0 -0 -0 0 -0 1 0 -0 -1 -0 0 0 0 0 0 0 0 -0 -0 nan
nan 0 0 0 0 0 0 -0 -0 -0 -0 -1 -1 -1 -0 -0 -0 -1 -1 -1 -2 -1 0 0 0 -0 0 0 0 0 0 0 0 0 -0 -0 0 nan
nan 0 0 0 0 0 -0 -0 -0 -0 -0 -1 -1 -1 -1 -1 -1 -0 -1 -1 -1 -2 -1 0 0 0 0 0 0 0 -0 0 0 0 -0 -0 0 nan
nan 1 0 0 0 -0 -0 -1 -1 -1 -1 -1 -1 -1 -1 -1 -1 -1 -1 -1 -1 -2 -1 -0 -0 0 0 0 -0 -0 0 0 0 0 0 -0 0 nan
nan 0 0 0 -0 -0 -0 -1 -1 -1 -1 -1 -1 -1 -1 -1 -1 -1 -1 -1 -1 -2 -1 0 -0 0 0 -0 -0 0 0 0 0 0 0 -0 -0 nan
nan 0 0 0 -0 -0 -0 -0 -1 -0 -0 -1 -1 -1 -1 -1 -1 -1 -1 -1 -1 -2 -1 -0 -0 0 -0 0 0 0 0 0 0 0 0 -0 -0 nan
nan 0 -0 -0 -0 -0 -0 -0 -0 -0 -0 -0 -0 -0 -1 -1 -1 -1 -1 -1 -1 -1 -1 -1 -0 0 0 0 0 0 0 0 0 0 0 -0 -0 nan
nan 0 0 -0 -0 -0 -0 -1 -1 -0 -0 -0 -0 -0 -0 -0 -1 -1 -1 -1 -1 -1 -1 -1 -0 -0 0 0 0 0 0 0 0 0 0 0 -0 nan
nan nan nan nan nan nan nan nan nan nan nan nan nan nan nan nan nan nan nan nan nan nan nan nan nan nan nan nan nan nan nan nan nan nan nan nan nan nan
Wind_Speed
31 30 35 32 25 27 26 27 28 26 23 25 25 26 31 28 20 21 25 28 30 30 30 33 33 33 34 35 35 34 34 32 29 27 28 28 28 24
27 28 30 25 25 23 24 27 26 25 25 23 27 30 29 24 24 26 27 28 29 28 29 32 34 36 38 39 41 39 35 31 30 28 27 28 24 22
24 26 27 27 23 24 25 24 22 21 24 29 31 28 25 26 28 29 31 32 32 30 32 35 39 42 42 42 45 44 36 35 32 30 28 27 24 25
27 26 25 22 23 23 20 19 18 20 23 26 25 26 27 28 30 32 32 31 33 33 32 35 38 39 40 42 44 48 42 36 35 32 29 29 30 27
25 21 21 22 20 19 18 19 21 21 23 23 25 27 29 27 29 31 33 35 35 35 37 40 40 41 41 41 42 43 53 39 36 32 30 32 31 31
21 19 20 20 18 18 18 21 21 25 18 20 24 27 29 30 32 35 39 39 41 40 42 42 41 42 42 42 40 40 52 42 39 33 31 30 30 31
22 22 20 18 19 20 22 23 24 21 22 24 26 29 32 35 36 37 41 46 49 47 49 51 46 46 41 38 38 39 37 36 29 31 28 30 29 25
21 20 21 20 18 20 23 20 20 21 23 26 29 32 35 37 39 40 41 44 49 43 36 43 40 40 39 35 37 40 27 26 25 26 29 29 25 26
21 21 19 19 21 20 19 19 20 23 26 30 33 34 35 33 35 37 36 37 40 40 34 45 39 42 36 36 35 25 24 25 25 28 29 26 26 27
18 17 19 18 18 19 20 22 23 25 27 28 29 29 29 30 31 32 33 38 41 40 33 34 35 39 37 33 34 25 23 25 27 27 25 25 26 27
18 18 17 17 19 20 23 23 24 25 25 25 25 25 26 26 26 29 32 33 37 42 34 32 33 34 35 36 30 24 26 27 28 21 23 25 24 27
15 15 16 18 19 21 22 23 24 24 24 24 24 24 25 25 25 24 26 29 32 38 32 29 36 29 30 32 29 25 31 24 15 21 22 23 26 26
14 16 17 18 19 21 22 21 22 22 23 24 25 26 26 26 25 25 24 26 32 37 33 31 36 33 34 29 18 22 13 14 14 17 20 23 21 18
15 16 16 18 19 20 19 19 20 22 23 24 26 26 28 28 28 29 28 28 30 32 29 26 30 29 28 24 13 13 12 11 14 16 18 16 14 15
15 15 17 18 17 16 17 19 21 22 23 25 27 28 29 30 30 31 31 32 33 26 25 25 22 27 30 19 15 13 10 12 14 14 8 11 13 14
15 15 15 16 17 18 19 19 20 21 23 25 27 28 29 29 30 30 32 34 33 22 16 19 20 19 22 18 14 13 12 10 7 9 12 14 14 13
15 16 16 17 18 18 19 19 20 21 23 24 26 27 28 29 29 28 28 31 28 25 19 24 14 19 18 19 17 17 14 12 10 11 14 13 12 13
15 15 16 17 18 18 19 20 21 22 24 25 25 26 28 29 29 28 26 27 28 23 18 20 14 14 16 19 17 15 14 12 10 12 12 12 11 5
13 14 16 16 17 18 19 21 23 24 24 25 26 26 27 28 27 28 27 26 27 22 17 17 10 12 16 19 14 14 14 12 10 11 10 13 11 5
15 15 16 17 18 20 22 23 24 24 24 25 26 26 25 26 27 26 24 24 25 23 13 14 16 16 16 15 16 13 13 12 11 10 11 9 9 7
15 15 17 20 21 22 23 24 24 24 24 25 26 25 24 25 25 24 24 21 22 20 11 12 14 12 12 13 15 14 12 11 11 12 10 10 9 10
17 19 19 21 22 24 24 24 25 24 24 25 24 24 23 22 24 22 22 23 21 19 14 10 10 12 13 15 17 11 10 10 10 9 10 11 10 7
18 19 21 23 24 25 26 26 25 24 23 23 23 22 22 22 22 22 21 20 20 18 15 6 7 11 12 14 14 11 11 9 10 9 8 8 10 10
Wind_Direction
264 258 257 260 268 271 269 270 266 262 265 269 270 276 286 290 273 277 280 279 281 277 273 272 273 273 277 278 274 278 282 286 292 294 298 302 307 299
258 255 263 263 264 258 271 270 262 261 265 274 279 287 288 284 278 279 281 283 285 283 275 270 271 274 275 276 273 272 274 278 281 286 289 296 291 286
252 255 262 259 269 257 262 254 253 260 271 281 286 288 284 284 288 290 287 283 283 279 277 276 276 275 279 278 273 269 268 276 267 276 282 288 280 281
251 255 259 253 257 251 248 251 257 269 282 287 287 284 285 285 288 290 288 286 286 288 287 285 286 287 286 285 277 266 258 264 261 270 276 282 285 279
255 250 256 251 242 242 244 252 266 274 275 277 283 285 285 289 289 284 284 284 284 287 287 285 287 287 285 282 284 271 258 261 257 258 267 279 278 278
240 239 240 234 235 237 245 258 270 276 273 270 275 281 285 288 289 294 293 291 290 290 287 286 286 285 282 282 281 270 266 256 248 257 271 272 272 278
240 233 227 223 225 236 249 264 268 268 279 285 290 294 297 299 300 299 296 295 292 291 290 289 288 285 283 282 272 273 266 267 260 261 267 269 276 273
224 219 219 227 241 255 262 260 269 277 283 289 292 294 296 296 295 296 296 298 300 298 293 289 286 285 284 281 272 265 265 259 256 259 263 271 266 274
213 220 230 242 252 255 256 264 272 280 285 287 290 292 293 297 300 301 302 299 297 302 299 292 287 283 282 281 273 269 266 254 250 257 269 259 263 278
221 231 241 246 247 255 264 272 277 281 284 288 290 294 298 302 302 303 301 298 298 299 308 291 294 284 283 283 272 258 252 244 250 262 256 257 270 281
227 232 238 249 261 270 275 280 281 283 285 288 293 298 300 301 301 300 296 297 297 298 301 305 306 291 284 280 274 249 242 241 256 250 251 264 272 278
226 239 253 264 270 272 278 283 287 289 294 297 302 307 312 313 314 308 305 296 292 294 297 295 305 295 284 282 276 235 233 246 240 243 255 267 275 276
244 254 261 265 270 277 281 286 290 299 304 307 311 313 313 313 313 312 307 301 296 288 285 287 290 296 274 260 259 232 223 219 233 247 266 277 274 266
254 259 263 270 279 284 287 289 298 302 305 309 312 314 314 314 316 317 313 311 304 291 286 278 282 283 268 244 228 205 215 225 245 270 279 280 261 266
266 274 282 285 286 288 289 293 298 301 304 308 311 314 315 315 316 318 315 318 313 298 281 276 269 273 272 237 231 231 224 244 261 265 249 264 267 267
278 280 284 286 286 286 289 294 299 303 310 312 313 314 314 314 316 321 319 324 320 306 294 302 282 263 266 238 230 241 243 247 242 243 269 278 268 274
284 284 281 281 283 287 293 299 304 308 310 313 315 316 317 317 317 319 322 324 320 313 304 319 286 272 249 230 228 237 248 246 245 249 264 278 274 287
274 275 279 282 288 295 300 305 308 311 313 315 317 318 318 317 316 317 320 325 320 311 301 307 282 236 216 228 236 243 249 241 243 252 264 285 284 291
284 282 284 290 295 298 302 306 309 312 313 313 316 317 317 315 315 317 320 324 320 312 289 272 259 232 233 236 235 244 250 235 251 253 274 283 279 266
290 287 289 294 299 304 306 305 306 307 309 312 314 314 313 311 312 313 315 321 324 319 289 257 245 239 239 244 239 263 239 234 246 260 284 274 275 271
291 291 295 298 299 301 302 303 303 307 310 311 312 312 312 309 309 310 312 314 320 321 290 255 251 244 241 239 242 240 231 242 246 271 271 261 265 275
291 293 295 299 300 301 303 304 305 306 307 308 309 310 311 310 310 309 311 314 316 320 308 248 252 238 233 236 239 247 238 248 263 247 247 253 266 266
296 297 299 300 301 303 304 303 301 305 309 308 308 311 312 312 312 311 311 311 311 313 313 272 254 253 237 242 233 224 232 246 240 246 259 261 263 264
Height
1522 1523 1525 1526 1527 1528 1528 1529 1528 1526 1525 1527 1529 1531 1531 1529 1528 1527 1527 1527 1527 1526 1525 1525 1524 1522 1521 1519 1518 1516 1514 1513 1512 1509 1508 1506 1503 1501
1516 1517 1519 1520 1521 1521 1522 1522 1522 1522 1520 1521 1523 1523 1524 1523 1522 1521 1520 1519 1519 1519 1518 1518 1517 1515 1513 1511 1509 1508 1507 1506 1505 1503 1501 1499 1497 1495
1510 1512 1513 1514 1515 1516 1516 1517 1518 1518 1516 1515 1515 1516 1516 1516 1516 1514 1512 1510 1508 1509 1510 1509 1507 1505 1503 1502 1500 1500 1498 1496 1496 1496 1494 1492 1491 1491
1505 1505 1507 1507 1509 1510 1510 1512 1513 1513 1512 1510 1509 1510 1509 1509 1508 1506 1505 1502 1500 1500 1500 1499 1496 1494 1491 1490 1489 1488 1487 1486 1486 1487 1486 1485 1484 1483
1499 1499 1500 1502 1504 1505 1506 1508 1508 1507 1507 1505 1503 1503 1503 1502 1500 1497 1496 1493 1492 1491 1490 1487 1486 1483 1480 1478 1477 1476 1474 1474 1476 1476 1477 1476 1475 1474
1492 1494 1495 1496 1498 1500 1501 1501 1501 1500 1500 1499 1498 1497 1496 1495 1493 1490 1487 1485 1482 1482 1480 1477 1475 1471 1469 1467 1465 1464 1464 1462 1464 1467 1468 1467 1467 1466
1487 1488 1489 1490 1492 1493 1495 1496 1495 1495 1494 1493 1492 1491 1490 1488 1486 1484 1478 1474 1469 1470 1467 1462 1462 1460 1457 1456 1454 1453 1452 1453 1455 1458 1459 1459 1458 1458
1481 1483 1484 1486 1488 1490 1490 1491 1491 1489 1489 1488 1487 1485 1484 1482 1479 1476 1471 1466 1455 1461 1455 1447 1450 1446 1445 1445 1444 1444 1442 1445 1448 1450 1451 1450 1450 1450
1477 1479 1481 1483 1485 1486 1487 1487 1486 1485 1485 1483 1480 1480 1476 1474 1470 1466 1462 1458 1451 1448 1447 1436 1438 1434 1435 1435 1435 1436 1436 1438 1440 1442 1442 1442 1442 1442
1474 1476 1478 1480 1482 1483 1483 1483 1482 1481 1478 1476 1474 1472 1469 1467 1464 1459 1454 1448 1442 1438 1439 1431 1428 1423 1425 1424 1425 1426 1428 1430 1433 1434 1434 1435 1435 1434
1472 1474 1475 1476 1478 1478 1477 1477 1477 1475 1473 1471 1469 1467 1464 1462 1459 1453 1449 1444 1434 1428 1430 1426 1421 1418 1416 1415 1415 1416 1420 1423 1424 1426 1427 1428 1428 1426
1469 1470 1472 1473 1473 1472 1472 1470 1469 1468 1466 1464 1463 1460 1457 1454 1451 1448 1443 1437 1432 1423 1422 1421 1416 1414 1410 1406 1406 1407 1411 1413 1417 1420 1421 1421 1420 1418
1466 1468 1468 1469 1469 1467 1465 1464 1462 1461 1459 1456 1453 1451 1448 1445 1443 1440 1436 1431 1425 1417 1416 1415 1409 1407 1404 1402 1400 1401 1404 1410 1413 1415 1415 1414 1412 1411
1464 1464 1464 1463 1462 1461 1460 1459 1458 1455 1453 1450 1447 1444 1440 1436 1433 1430 1426 1422 1417 1409 1406 1407 1403 1401 1398 1398 1398 1401 1403 1406 1409 1409 1408 1407 1407 1407
1460 1460 1459 1458 1457 1457 1455 1454 1451 1449 1446 1443 1439 1436 1433 1429 1425 1421 1417 1412 1405 1401 1399 1398 1397 1395 1394 1394 1395 1398 1400 1403 1404 1403 1403 1403 1403 1402
1456 1455 1454 1454 1453 1452 1451 1449 1446 1443 1440 1436 1433 1430 1426 1421 1418 1414 1408 1402 1395 1391 1392 1391 1390 1389 1389 1390 1392 1395 1397 1399 1398 1399 1399 1399 1398 1398
1451 1450 1450 1449 1448 1447 1445 1443 1440 1437 1434 1431 1428 1423 1419 1414 1411 1408 1403 1397 1391 1385 1383 1382 1383 1383 1384 1387 1389 1391 1393 1393 1394 1395 1395 1395 1394 1393
1446 1446 1445 1444 1443 1441 1438 1436 1433 1430 1428 1425 1421 1417 1413 1409 1404 1401 1398 1393 1387 1382 1379 1379 1378 1378 1381 1383 1385 1386 1388 1389 1391 1391 1391 1390 1389 1389
1441 1440 1439 1439 1437 1434 1431 1429 1427 1424 1422 1419 1415 1411 1408 1404 1400 1396 1393 1389 1384 1378 1375 1377 1376 1376 1377 1378 1381 1383 1384 1385 1387 1387 1387 1386 1385 1385
1436 1435 1434 1433 1431 1428 1426 1423 1421 1418 1415 1412 1409 1405 1402 1398 1394 1391 1388 1382 1380 1375 1370 1372 1372 1373 1374 1375 1377 1379 1380 1382 1382 1383 1383 1382 1382 1382
1431 1430 1429 1427 1425 1422 1419 1417 1414 1412 1409 1406 1402 1399 1397 1393 1389 1387 1384 1378 1376 1373 1367 1368 1369 1370 1371 1372 1374 1375 1377 1378 1378 1379 1379 1379 1379 1379
1425 1423 1422 1420 1417 1415 1412 1409 1406 1404 1402 1399 1396 1393 1390 1387 1384 1379 1378 1374 1370 1368 1363 1362 1364 1366 1367 1368 1370 1371 1373 1374 1374 1375 1375 1376 1376 1376
1419 1417 1415 1413 1411 1408 1405 1402 1400 1398 1396 1393 1390 1388 1385 1380 1380 1376 1373 1369 1366 1363 1360 1358 1358 1361 1363 1364 1366 1368 1369 1370 1371 1372 1372 1373 1373 1373